| time (UTC) | temp F | wind direction | speed MPH | gust MPH | rain 1hr in | rain 24hr in | rain mn in | humidity % | barometer mb |
| 20260504204503 | 69 | 225 | 6.0 | 15.0 | 0.00 | 0.01 | 0.01 | 35 | 1007.4 |
| 20260504203603 | 69 | 229 | 6.0 | 23.0 | 0.00 | 0.01 | 0.01 | 35 | 1007.3 |
| 20260504202703 | 68 | 224 | 6.0 | 22.0 | 0.00 | 0.01 | 0.01 | 33 | 1007.3 |
| 20260504201803 | 68 | 232 | 5.0 | 16.0 | 0.00 | 0.01 | 0.01 | 34 | 1007.4 |
| 20260504200903 | 68 | 228 | 7.0 | 16.0 | 0.00 | 0.01 | 0.01 | 33 | 1007.5 |
| 20260504200003 | 69 | 214 | 5.0 | 17.0 | 0.00 | 0.01 | 0.01 | 33 | 1007.3 |
| 20260504195403 | 70 | 208 | 5.0 | 17.0 | 0.00 | 0.01 | 0.01 | 35 | 1007.3 |
| 20260504194503 | 68 | 209 | 7.0 | 17.0 | 0.00 | 0.01 | 0.01 | 33 | 1007.5 |
| 20260504193603 | 70 | 230 | 7.0 | 15.0 | 0.00 | 0.01 | 0.01 | 34 | 1007.4 |
| 20260504192914 | 69 | 231 | 6.0 | 20.0 | 0.00 | 0.01 | 0.01 | 36 | 1007.3 |
| 20260504191803 | 69 | 209 | 7.0 | 21.0 | 0.00 | 0.01 | 0.01 | 33 | 1007.5 |
| 20260504190903 | 69 | 217 | 8.0 | 21.0 | 0.00 | 0.01 | 0.01 | 33 | 1007.4 |
| 20260504190003 | 69 | 223 | 7.0 | 21.0 | 0.00 | 0.01 | 0.01 | 34 | 1007.6 |
| 20260504185403 | 68 | 227 | 9.0 | 21.0 | 0.00 | 0.01 | 0.01 | 32 | 1007.7 |
| 20260504184503 | 68 | 218 | 7.0 | 17.0 | 0.00 | 0.01 | 0.01 | 31 | 1007.8 |
| 20260504183814 | 68 | 208 | 7.0 | 16.0 | 0.00 | 0.01 | 0.01 | 34 | 1007.8 |
| 20260504182703 | 68 | 220 | 8.0 | 21.0 | 0.00 | 0.01 | 0.01 | 32 | 1008.0 |
| 20260504181803 | 68 | 236 | 6.0 | 19.0 | 0.00 | 0.01 | 0.01 | 31 | 1008.0 |
| 20260504180903 | 67 | 220 | 9.0 | 22.0 | 0.00 | 0.01 | 0.01 | 33 | 1008.1 |
| 20260504180003 | 68 | 223 | 8.0 | 19.0 | 0.00 | 0.01 | 0.01 | 32 | 1008.1 |
| 20260504175403 | 67 | 234 | 7.0 | 19.0 | 0.00 | 0.01 | 0.01 | 32 | 1008.0 |
| 20260504174503 | 68 | 217 | 5.0 | 17.0 | 0.00 | 0.01 | 0.01 | 36 | 1008.0 |
| 20260504173603 | 67 | 206 | 6.0 | 20.0 | 0.00 | 0.01 | 0.01 | 33 | 1008.1 |
| 20260504172703 | 66 | 229 | 9.0 | 19.0 | 0.00 | 0.01 | 0.01 | 34 | 1008.3 |
| 20260504171803 | 66 | 207 | 10.0 | 23.0 | 0.00 | 0.01 | 0.01 | 34 | 1008.3 |
| 20260504170903 | 66 | 214 | 6.0 | 15.0 | 0.00 | 0.01 | 0.01 | 34 | 1008.3 |
| 20260504150903 | 61 | 225 | 8.0 | 23.0 | 0.00 | 0.01 | 0.01 | 41 | 1009.6 |
| 20260504140903 | 60 | 237 | 6.0 | 17.0 | 0.00 | 0.01 | 0.01 | 42 | 1009.9 |
| 20260504140214 | 59 | 236 | 7.0 | 17.0 | 0.00 | 0.01 | 0.01 | 43 | 1009.8 |
| 20260504081803 | 44 | 244 | 0.0 | 1.0 | 0.00 | 0.01 | 0.01 | 60 | 1010.8 |
| 20260504080903 | 44 | 244 | 0.0 | 1.0 | 0.00 | 0.01 | 0.01 | 60 | 1010.7 |
| 20260504050003 | 41 | 0 | 0.0 | 0.0 | 0.00 | 0.00 | 0.00 | 68 | 1010.6 |
| 20260504045403 | 41 | 0 | 0.0 | 0.0 | 0.00 | 0.00 | 0.00 | 67 | 1010.6 |
| 20260504044503 | 40 | 0 | 0.0 | 0.0 | 0.00 | 0.00 | 0.00 | 65 | 1010.7 |
| 20260504043603 | 40 | 0 | 0.0 | 0.0 | 0.00 | 0.00 | 0.00 | 65 | 1010.8 |
| 20260504042703 | 39 | 0 | 0.0 | 0.0 | 0.00 | 0.00 | 0.00 | 68 | 1010.9 |
| 20260504041803 | 38 | 0 | 0.0 | 0.0 | 0.00 | 0.00 | 0.00 | 69 | 1010.8 |
| 20260504040903 | 38 | 0 | 0.0 | 0.0 | 0.00 | 0.00 | 0.00 | 70 | 1010.7 |
| 20260504040003 | 38 | 0 | 0.0 | 0.0 | 0.00 | 0.00 | 0.00 | 68 | 1010.4 |
| 20260504035403 | 37 | 0 | 0.0 | 0.0 | 0.00 | 0.00 | 0.00 | 70 | 1010.5 |
| 20260504034503 | 37 | 0 | 0.0 | 0.0 | 0.00 | 0.00 | 0.00 | 68 | 1010.4 |
| 20260504033603 | 37 | 0 | 0.0 | 0.0 | 0.00 | 0.00 | 0.00 | 69 | 1010.2 |
| 20260504032703 | 37 | 0 | 0.0 | 0.0 | 0.00 | 0.00 | 0.00 | 70 | 1010.2 |
| 20260504031803 | 37 | 0 | 0.0 | 0.0 | 0.00 | 0.00 | 0.00 | 71 | 1010.2 |
| 20260504030903 | 36 | 0 | 0.0 | 0.0 | 0.00 | 0.00 | 0.00 | 72 | 1010.2 |
| 20260504030213 | 37 | 0 | 0.0 | 0.0 | 0.00 | 0.00 | 0.00 | 70 | 1010.2 |
| 20260504025403 | 37 | 0 | 0.0 | 0.0 | 0.00 | 0.00 | 0.00 | 70 | 1010.1 |
| 20260504024503 | 38 | 0 | 0.0 | 0.0 | 0.00 | 0.00 | 0.00 | 68 | 1010.1 |
| 20260504023603 | 38 | 0 | 0.0 | 0.0 | 0.00 | 0.00 | 0.00 | 68 | 1010.0 |
| 20260504022703 | 38 | 0 | 0.0 | 0.0 | 0.00 | 0.00 | 0.00 | 69 | 1010.0 |
| 20260504021807 | 39 | 0 | 0.0 | 0.0 | 0.00 | 0.00 | 0.00 | 67 | 1010.0 |
| 20260504021114 | 39 | 0 | 0.0 | 0.0 | 0.00 | 0.00 | 0.00 | 66 | 1009.9 |
| 20260504020003 | 40 | 0 | 0.0 | 0.0 | 0.00 | 0.00 | 0.00 | 65 | 1009.9 |
| 20260504015403 | 40 | 0 | 0.0 | 0.0 | 0.00 | 0.00 | 0.00 | 65 | 1009.9 |
| 20260504014503 | 40 | 0 | 0.0 | 0.0 | 0.00 | 0.00 | 0.00 | 63 | 1009.9 |
| 20260504013603 | 41 | 0 | 0.0 | 0.0 | 0.00 | 0.00 | 0.00 | 61 | 1009.8 |
| 20260504012703 | 41 | 0 | 0.0 | 0.0 | 0.00 | 0.00 | 0.00 | 60 | 1009.7 |
| 20260504011803 | 42 | 0 | 0.0 | 0.0 | 0.00 | 0.00 | 0.00 | 60 | 1009.7 |
| 20260504010903 | 42 | 0 | 0.0 | 0.0 | 0.00 | 0.00 | 0.00 | 60 | 1009.5 |
| 20260504010003 | 43 | 0 | 0.0 | 0.0 | 0.00 | 0.00 | 0.00 | 57 | 1009.4 |
| 20260504005403 | 43 | 0 | 0.0 | 0.0 | 0.00 | 0.00 | 0.00 | 55 | 1009.3 |
| 20260504004714 | 44 | 0 | 0.0 | 0.0 | 0.00 | 0.00 | 0.00 | 55 | 1009.2 |
| 20260504003603 | 45 | 0 | 0.0 | 0.0 | 0.00 | 0.00 | 0.00 | 55 | 1009.2 |
| 20260504002703 | 45 | 0 | 0.0 | 0.0 | 0.00 | 0.00 | 0.00 | 52 | 1009.1 |
| 20260504001803 | 46 | 0 | 0.0 | 0.0 | 0.00 | 0.00 | 0.00 | 50 | 1009.0 |
| 20260504000903 | 46 | 244 | 0.0 | 2.0 | 0.00 | 0.00 | 0.00 | 46 | 1009.0 |
| 20260504000212 | 47 | 244 | 1.0 | 4.0 | 0.00 | 0.00 | 0.00 | 46 | 1008.9 |
| 20260503235406 | 47 | 242 | 1.0 | 4.0 | 0.00 | 0.00 | 0.00 | 45 | 1008.8 |
| 20260503234713 | 48 | 238 | 2.0 | 8.0 | 0.00 | 0.00 | 0.00 | 44 | 1008.7 |
| 20260503233607 | 48 | 232 | 1.0 | 8.0 | 0.00 | 0.00 | 0.00 | 44 | 1008.6 |
| 20260503232703 | 49 | 235 | 1.0 | 5.0 | 0.00 | 0.00 | 0.00 | 42 | 1008.6 |
| 20260503232013 | 49 | 233 | 2.0 | 10.0 | 0.00 | 0.00 | 0.00 | 42 | 1008.5 |
| 20260503230903 | 50 | 265 | 3.0 | 13.0 | 0.00 | 0.00 | 0.00 | 40 | 1008.4 |
| 20260503230003 | 50 | 269 | 2.0 | 8.0 | 0.00 | 0.00 | 0.00 | 42 | 1008.4 |
| 20260503225614 | 50 | 249 | 2.0 | 9.0 | 0.00 | 0.00 | 0.00 | 42 | 1008.3 |
| 20260503224503 | 51 | 253 | 2.0 | 6.0 | 0.00 | 0.00 | 0.00 | 41 | 1008.2 |
| 20260503223603 | 51 | 288 | 2.0 | 10.0 | 0.00 | 0.00 | 0.00 | 40 | 1008.1 |
| 20260503222703 | 50 | 260 | 4.0 | 14.0 | 0.00 | 0.00 | 0.00 | 41 | 1008.1 |
| 20260503221803 | 52 | 264 | 4.0 | 10.0 | 0.00 | 0.00 | 0.00 | 39 | 1008.1 |
| 20260503221112 | 52 | 260 | 3.0 | 13.0 | 0.00 | 0.00 | 0.00 | 40 | 1007.9 |
| 20260503220003 | 51 | 249 | 5.0 | 16.0 | 0.00 | 0.00 | 0.00 | 40 | 1008.0 |
| 20260503215613 | 51 | 261 | 5.0 | 16.0 | 0.00 | 0.00 | 0.00 | 40 | 1007.9 |
| 20260503214713 | 51 | 257 | 5.0 | 17.0 | 0.00 | 0.00 | 0.00 | 39 | 1007.8 |
| 20260503213603 | 50 | 259 | 4.0 | 17.0 | 0.00 | 0.00 | 0.00 | 41 | 1007.7 |
| 20260503212703 | 52 | 289 | 4.0 | 17.0 | 0.00 | 0.00 | 0.00 | 39 | 1007.6 |
| 20260503211803 | 51 | 279 | 4.0 | 14.0 | 0.00 | 0.01 | 0.00 | 43 | 1007.4 |
| 20260503210903 | 50 | 265 | 4.0 | 17.0 | 0.00 | 0.01 | 0.00 | 42 | 1007.4 |
| 20260503210003 | 50 | 287 | 6.0 | 17.0 | 0.00 | 0.01 | 0.00 | 41 | 1007.4 |
| 20260503205403 | 50 | 292 | 6.0 | 17.0 | 0.00 | 0.01 | 0.00 | 41 | 1007.3 |